Overview Statistics Trail Chart Weather Telemetry Raw packets
 

This is the latest recevied weather packets stored in our database for station/object VK4CWL-13. If no packets are shown the sender has not sent any weather packets the latest 10 day(s).

<< 47 48 49 50 51 52 53 >>
Time Temp. Humidity Pressure Rain* Wind** Luminosity Snow
1788350042 15° C 52% 1020.8 hPa 0 mm - - -
1788349435 15° C 52% 1020.7 hPa 0 mm - - -
1788349132 15° C 51% 1020.8 hPa 0 mm - - -
1788348830 15° C 49% 1020.6 hPa 0 mm - - -
1788348527 15.56° C 48% 1020.6 hPa 0 mm - - -
1788348225 15.56° C 48% 1020.3 hPa 0 mm - - -
1788347923 15.56° C 48% 1020.2 hPa 0 mm - - -
1788347620 16.11° C 47% 1020.3 hPa 0 mm - - -
1788347318 16.11° C 47% 1020.2 hPa 0 mm - - -
1788347016 16.11° C 46% 1020.3 hPa 0 mm - - -
1788346714 16.67° C 46% 1020.1 hPa 0 mm - - -
1788346109 16.67° C 45% 1020.2 hPa 0 mm - - -
1788345807 17.22° C 44% 1020.1 hPa 0 mm - - -
1788345504 17.22° C 44% 1020.2 hPa 0 mm - - -
1788345202 17.78° C 44% 1020.1 hPa 0 mm - - -
1788344900 17.78° C 43% 1020 hPa 0 mm - - -
1788344597 18.33° C 43% 1020.1 hPa 0 mm - - -
1788344295 18.33° C 43% 1020 hPa 0 mm - - -
1788343993 18.89° C 42% 1019.9 hPa 0 mm - - -
1788343691 18.89° C 42% 1019.8 hPa 0 mm - - -
1788343389 18.89° C 41% 1019.8 hPa 0 mm - - -
1788343087 19.44° C 41% 1019.8 hPa 0 mm - - -
1788342784 19.44° C 41% 1019.7 hPa 0 mm - - -
1788342481 20° C 40% 1019.7 hPa 0 mm - - -
1788342179 20° C 40% 1019.7 hPa 0 mm - - -

* Rain since midnight (hover to see other rain measurements)
** Current wind speed in m/s (hover to see current wind gust speed)